| time (UTC) | temp C | wind direction | speed KPH | gust KPH | rain 1hr cm | rain 24hr cm | rain mn cm | humidity % | barometer mb |
| 20260507034003 | 17 | 288 | 8.0 | 17.7 | 0.00 | 0.00 | 0.00 | 1016.3 | |
| 20260507033503 | 17 | 285 | 8.0 | 14.5 | 0.00 | 0.00 | 0.00 | 1016.3 | |
| 20260507033024 | 17 | 272 | 6.4 | 12.9 | 0.00 | 0.00 | 0.00 | 1016.0 | |
| 20260507032502 | 17 | 282 | 4.8 | 11.3 | 0.00 | 0.00 | 0.00 | 1016.3 | |
| 20260507032002 | 17 | 260 | 4.8 | 11.3 | 0.00 | 0.00 | 0.00 | 1016.3 | |
| 20260507031501 | 17 | 280 | 4.8 | 14.5 | 0.00 | 0.00 | 0.00 | 1016.3 | |
| 20260507031002 | 17 | 281 | 8.0 | 14.5 | 0.00 | 0.00 | 0.00 | 1016.3 | |
| 20260507030502 | 17 | 282 | 9.7 | 14.5 | 0.00 | 0.00 | 0.00 | 1016.3 | |
| 20260507030023 | 17 | 276 | 8.0 | 16.1 | 0.00 | 0.00 | 0.00 | 1016.3 | |
| 20260507025503 | 17 | 279 | 9.7 | 16.1 | 0.00 | 0.00 | 0.00 | 1016.3 | |
| 20260507025002 | 18 | 281 | 8.0 | 14.5 | 0.00 | 0.00 | 0.00 | 1016.6 | |
| 20260507024504 | 18 | 267 | 8.0 | 16.1 | 0.00 | 0.00 | 0.00 | 1016.0 | |
| 20260507024001 | 18 | 267 | 9.7 | 16.1 | 0.00 | 0.00 | 0.00 | 1016.3 | |
| 20260507023502 | 18 | 283 | 9.7 | 19.3 | 0.00 | 0.00 | 0.00 | 1015.6 | |
| 20260507023023 | 18 | 254 | 8.0 | 19.3 | 0.00 | 0.00 | 0.00 | 1015.3 | |
| 20260507022503 | 18 | 257 | 9.7 | 17.7 | 0.00 | 0.00 | 0.00 | 1016.0 | |
| 20260507022001 | 18 | 267 | 9.7 | 17.7 | 0.00 | 0.00 | 0.00 | 1015.3 | |
| 20260507021503 | 18 | 276 | 9.7 | 16.1 | 0.00 | 0.00 | 0.00 | 1015.6 | |
| 20260507021002 | 19 | 276 | 11.3 | 16.1 | 0.00 | 0.00 | 0.00 | 1015.3 | |
| 20260507020501 | 19 | 287 | 6.4 | 16.1 | 0.00 | 0.00 | 0.00 | 1015.3 | |
| 20260507020002 | 20 | 276 | 9.7 | 17.7 | 0.00 | 0.00 | 0.00 | 1014.6 | |
| 20260507015502 | 20 | 264 | 11.3 | 17.7 | 0.00 | 0.00 | 0.00 | 1015.3 | |
| 20260507015002 | 20 | 276 | 9.7 | 22.5 | 0.00 | 0.00 | 0.00 | 1015.3 | |
| 20260507014502 | 20 | 258 | 8.0 | 22.5 | 0.00 | 0.00 | 0.00 | 1015.3 | |
| 20260507014023 | 20 | 279 | 11.3 | 22.5 | 0.00 | 0.00 | 0.00 | 1015.6 | |
| 20260507013501 | 20 | 293 | 8.0 | 19.3 | 0.00 | 0.00 | 0.00 | 1014.9 | |
| 20260507013004 | 20 | 282 | 11.3 | 19.3 | 0.00 | 0.00 | 0.00 | 1015.6 | |
| 20260507012501 | 20 | 291 | 11.3 | 19.3 | 0.00 | 0.00 | 0.00 | 1015.3 | |
| 20260507012002 | 20 | 276 | 11.3 | 22.5 | 0.00 | 0.00 | 0.00 | 1015.6 | |
| 20260507011502 | 21 | 278 | 11.3 | 22.5 | 0.00 | 0.00 | 0.00 | 1015.3 | |
| 20260507011004 | 21 | 273 | 9.7 | 20.9 | 0.00 | 0.00 | 0.00 | 1015.3 | |
| 20260507010503 | 21 | 260 | 12.9 | 20.9 | 0.00 | 0.00 | 0.00 | 1014.9 | |
| 20260507010002 | 21 | 273 | 11.3 | 20.9 | 0.00 | 0.00 | 0.00 | 1015.3 | |
| 20260507005524 | 21 | 272 | 12.9 | 20.9 | 0.00 | 0.00 | 0.00 | 1014.9 | |
| 20260507005002 | 22 | 258 | 12.9 | 19.3 | 0.00 | 0.00 | 0.00 | 1014.9 | |
| 20260507004502 | 22 | 247 | 12.9 | 22.5 | 0.00 | 0.00 | 0.00 | 1015.3 | |
| 20260507004002 | 22 | 274 | 11.3 | 22.5 | 0.00 | 0.00 | 0.00 | 1014.9 | |
| 20260507003502 | 22 | 291 | 8.0 | 16.1 | 0.00 | 0.00 | 0.00 | 1014.9 | |
| 20260507003001 | 22 | 273 | 9.7 | 22.5 | 0.00 | 0.00 | 0.00 | 1014.3 | |
| 20260507002502 | 22 | 260 | 11.3 | 22.5 | 0.00 | 0.00 | 0.00 | 1014.3 | |
| 20260507002002 | 22 | 279 | 9.7 | 20.9 | 0.00 | 0.00 | 0.00 | 1014.3 | |
| 20260507001502 | 22 | 278 | 11.3 | 20.9 | 0.00 | 0.00 | 0.00 | 1014.3 | |
| 20260507001003 | 22 | 262 | 11.3 | 20.9 | 0.00 | 0.00 | 0.00 | 1013.9 | |
| 20260507000524 | 22 | 261 | 9.7 | 19.3 | 0.00 | 0.00 | 0.00 | 1013.6 | |
| 20260507000002 | 23 | 251 | 12.9 | 19.3 | 0.00 | 0.00 | 0.00 | 1013.9 | |
| 20260506235501 | 23 | 258 | 9.7 | 19.3 | 0.00 | 0.00 | 0.00 | 1014.3 | |
| 20260506235003 | 23 | 212 | 12.9 | 19.3 | 0.00 | 0.00 | 0.00 | 1014.3 | |
| 20260506234524 | 23 | 222 | 9.7 | 24.1 | 0.00 | 0.00 | 0.00 | 1014.3 | |
| 20260506234024 | 23 | 252 | 11.3 | 24.1 | 0.00 | 0.00 | 0.00 | 1013.9 | |
| 20260506233502 | 23 | 213 | 8.0 | 16.1 | 0.00 | 0.00 | 0.00 | 1013.6 | |
| 20260506233002 | 23 | 218 | 9.7 | 24.1 | 0.00 | 0.00 | 0.00 | 1013.2 | |
| 20260506232502 | 23 | 208 | 11.3 | 24.1 | 0.00 | 0.00 | 0.00 | 1014.3 | |
| 20260506232003 | 23 | 214 | 11.3 | 20.9 | 0.00 | 0.00 | 0.00 | 1013.9 | |
| 20260506231502 | 23 | 210 | 11.3 | 22.5 | 0.00 | 0.00 | 0.00 | 1013.9 | |
| 20260506231001 | 23 | 226 | 14.5 | 22.5 | 0.00 | 0.00 | 0.00 | 1013.9 | |
| 20260506230502 | 23 | 204 | 11.3 | 24.1 | 0.00 | 0.00 | 0.00 | 1013.9 | |
| 20260506230002 | 23 | 215 | 12.9 | 24.1 | 0.00 | 0.00 | 0.00 | 1014.6 | |
| 20260506225523 | 23 | 184 | 11.3 | 22.5 | 0.00 | 0.00 | 0.00 | 1013.9 | |
| 20260506225003 | 23 | 196 | 9.7 | 22.5 | 0.00 | 0.00 | 0.00 | 1013.9 | |
| 20260506224501 | 23 | 184 | 11.3 | 22.5 | 0.00 | 0.00 | 0.00 | 1013.6 | |
| 20260506224002 | 23 | 209 | 14.5 | 20.9 | 0.00 | 0.00 | 0.00 | 1014.3 | |
| 20260506223502 | 23 | 203 | 11.3 | 22.5 | 0.00 | 0.00 | 0.00 | 1014.9 | |
| 20260506223001 | 23 | 222 | 12.9 | 22.5 | 0.00 | 0.00 | 0.00 | 1014.3 | |
| 20260506222524 | 23 | 225 | 11.3 | 19.3 | 0.00 | 0.00 | 0.00 | 1014.3 | |
| 20260506222003 | 22 | 235 | 8.0 | 20.9 | 0.00 | 0.00 | 0.00 | 1014.9 | |
| 20260506221504 | 22 | 235 | 9.7 | 20.9 | 0.00 | 0.00 | 0.00 | 1015.6 | |
| 20260506221002 | 23 | 225 | 9.7 | 24.1 | 0.00 | 0.00 | 0.00 | 1015.6 | |
| 20260506220503 | 22 | 190 | 9.7 | 27.4 | 0.00 | 0.00 | 0.00 | 1015.3 | |
| 20260506220003 | 22 | 226 | 12.9 | 27.4 | 0.00 | 0.00 | 0.00 | 1014.9 | |
| 20260506215503 | 22 | 217 | 11.3 | 24.1 | 0.00 | 0.00 | 0.00 | 1015.3 | |
| 20260506215002 | 22 | 233 | 11.3 | 22.5 | 0.00 | 0.00 | 0.00 | 1015.6 | |
| 20260506214501 | 22 | 234 | 17.7 | 22.5 | 0.00 | 0.00 | 0.00 | 1015.6 | |
| 20260506214002 | 22 | 231 | 12.9 | 22.5 | 0.00 | 0.00 | 0.00 | 1015.3 | |
| 20260506213502 | 22 | 210 | 9.7 | 22.5 | 0.00 | 0.00 | 0.00 | 1015.3 | |
| 20260506213001 | 22 | 233 | 11.3 | 22.5 | 0.00 | 0.00 | 0.00 | 1015.3 | |
| 20260506212524 | 22 | 218 | 9.7 | 19.3 | 0.00 | 0.00 | 0.00 | 1015.6 | |
| 20260506212023 | 22 | 232 | 12.9 | 20.9 | 0.00 | 0.00 | 0.00 | 1015.6 | |
| 20260506211502 | 22 | 221 | 9.7 | 22.5 | 0.00 | 0.00 | 0.00 | 1015.6 | |
| 20260506211002 | 22 | 235 | 12.9 | 22.5 | 0.00 | 0.00 | 0.00 | 1016.0 | |
| 20260506210523 | 23 | 210 | 11.3 | 19.3 | 0.00 | 0.00 | 0.00 | 1015.3 | |
| 20260506210001 | 22 | 210 | 9.7 | 19.3 | 0.00 | 0.00 | 0.00 | 1015.3 | |
| 20260506205503 | 22 | 192 | 8.0 | 19.3 | 0.00 | 0.00 | 0.00 | 1015.3 | |
| 20260506205003 | 22 | 222 | 8.0 | 17.7 | 0.00 | 0.00 | 0.00 | 1015.3 | |
| 20260506204503 | 22 | 218 | 8.0 | 17.7 | 0.00 | 0.00 | 0.00 | 1015.6 | |
| 20260506204024 | 22 | 227 | 8.0 | 17.7 | 0.00 | 0.00 | 0.00 | 1016.0 | |
| 20260506203502 | 22 | 176 | 8.0 | 19.3 | 0.00 | 0.00 | 0.00 | 1016.0 | |
| 20260506203002 | 22 | 197 | 11.3 | 19.3 | 0.00 | 0.00 | 0.00 | 1016.3 | |
| 20260506202502 | 21 | 253 | 8.0 | 17.7 | 0.00 | 0.00 | 0.00 | 1016.6 | |
| 20260506202002 | 22 | 213 | 8.0 | 19.3 | 0.00 | 0.00 | 0.00 | 1016.6 | |
| 20260506201523 | 22 | 222 | 12.9 | 25.7 | 0.00 | 0.00 | 0.00 | 1016.3 | |
| 20260506201023 | 22 | 183 | 9.7 | 25.7 | 0.00 | 0.00 | 0.00 | 1016.0 | |
| 20260506200523 | 22 | 225 | 11.3 | 22.5 | 0.00 | 0.00 | 0.00 | 1016.0 | |
| 20260506200003 | 22 | 190 | 9.7 | 17.7 | 0.00 | 0.00 | 0.00 | 1016.0 | |
| 20260506195503 | 22 | 138 | 6.4 | 17.7 | 0.00 | 0.00 | 0.00 | 1016.0 | |
| 20260506195002 | 22 | 201 | 9.7 | 19.3 | 0.00 | 0.00 | 0.00 | 1016.3 | |
| 20260506194502 | 21 | 205 | 11.3 | 19.3 | 0.00 | 0.00 | 0.00 | 1016.0 | |
| 20260506194003 | 21 | 225 | 9.7 | 19.3 | 0.00 | 0.00 | 0.00 | 1016.0 | |
| 20260506193501 | 21 | 215 | 9.7 | 20.9 | 0.00 | 0.00 | 0.00 | 1016.3 | |
| 20260506193002 | 21 | 142 | 6.4 | 20.9 | 0.00 | 0.00 | 0.00 | 1016.3 | |
| 20260506192501 | 21 | 222 | 9.7 | 16.1 | 0.00 | 0.00 | 0.00 | 1016.6 | |
| 20260506192003 | 21 | 227 | 6.4 | 16.1 | 0.00 | 0.00 | 0.00 | 1016.3 | |
| 20260506191501 | 21 | 222 | 8.0 | 16.1 | 0.00 | 0.00 | 0.00 | 1016.6 | |
| 20260506191023 | 21 | 167 | 8.0 | 16.1 | 0.00 | 0.00 | 0.00 | 1016.6 | |
| 20260506190502 | 21 | 228 | 9.7 | 17.7 | 0.00 | 0.00 | 0.00 | 1016.6 | |
| 20260506190023 | 21 | 206 | 8.0 | 17.7 | 0.00 | 0.00 | 0.00 | 1017.6 | |
| 20260506185523 | 21 | 218 | 9.7 | 19.3 | 0.00 | 0.00 | 0.00 | 1017.0 | |
| 20260506185002 | 22 | 225 | 12.9 | 19.3 | 0.00 | 0.00 | 0.00 | 1017.0 | |
| 20260506184502 | 22 | 180 | 6.4 | 17.7 | 0.00 | 0.00 | 0.00 | 1017.3 | |
| 20260506184002 | 21 | 196 | 6.4 | 16.1 | 0.00 | 0.00 | 0.00 | 1016.6 | |
| 20260506183501 | 21 | 194 | 8.0 | 16.1 | 0.00 | 0.00 | 0.00 | 1017.0 | |
| 20260506183002 | 21 | 250 | 3.2 | 17.7 | 0.00 | 0.00 | 0.00 | 1017.0 | |
| 20260506182501 | 21 | 179 | 8.0 | 17.7 | 0.00 | 0.00 | 0.00 | 1017.3 | |
| 20260506182002 | 21 | 206 | 9.7 | 20.9 | 0.00 | 0.00 | 0.00 | 1017.0 | |
| 20260506181502 | 21 | 185 | 8.0 | 20.9 | 0.00 | 0.00 | 0.00 | 1016.6 | |
| 20260506181023 | 20 | 207 | 9.7 | 19.3 | 0.00 | 0.00 | 0.00 | 1017.3 | |
| 20260506180523 | 20 | 221 | 6.4 | 14.5 | 0.00 | 0.00 | 0.00 | 1017.0 | |
| 20260506180002 | 20 | 234 | 4.8 | 16.1 | 0.00 | 0.00 | 0.00 | 1016.6 | |
| 20260506175523 | 19 | 200 | 6.4 | 17.7 | 0.00 | 0.00 | 0.00 | 1017.3 | |
| 20260506175002 | 18 | 265 | 9.7 | 17.7 | 0.00 | 0.00 | 0.00 | 1017.0 | |
| 20260506174501 | 19 | 246 | 4.8 | 11.3 | 0.00 | 0.00 | 0.00 | 1017.0 | |
| 20260506174002 | 19 | 118 | 3.2 | 12.9 | 0.00 | 0.00 | 0.00 | 1017.3 | |
| 20260506173502 | 18 | 314 | 1.6 | 12.9 | 0.00 | 0.00 | 0.00 | 1017.0 | |
| 20260506173002 | 18 | 193 | 6.4 | 12.9 | 0.00 | 0.00 | 0.00 | 1017.0 | |
| 20260506172502 | 18 | 270 | 3.2 | 8.0 | 0.00 | 0.00 | 0.00 | 1017.6 | |
| 20260506172002 | 18 | 0 | 1.6 | 9.7 | 0.00 | 0.00 | 0.00 | 1017.3 | |
| 20260506171524 | 18 | 79 | 6.4 | 14.5 | 0.00 | 0.00 | 0.00 | 1017.3 | |
| 20260506171003 | 18 | 75 | 6.4 | 14.5 | 0.00 | 0.00 | 0.00 | 1017.0 | |
| 20260506170502 | 18 | 72 | 3.2 | 8.0 | 0.00 | 0.00 | 0.00 | 1016.3 | |
| 20260506170002 | 18 | 354 | 3.2 | 11.3 | 0.00 | 0.00 | 0.00 | 1016.6 | |
| 20260506165502 | 18 | 89 | 6.4 | 11.3 | 0.00 | 0.00 | 0.00 | 1017.0 | |
| 20260506165003 | 18 | 85 | 6.4 | 11.3 | 0.00 | 0.00 | 0.00 | 1017.0 | |
| 20260506164502 | 18 | 100 | 4.8 | 11.3 | 0.00 | 0.00 | 0.00 | 1017.0 | |
| 20260506164024 | 18 | 80 | 6.4 | 11.3 | 0.00 | 0.00 | 0.00 | 1016.6 | |
| 20260506163502 | 18 | 121 | 3.2 | 8.0 | 0.00 | 0.00 | 0.00 | 1017.0 | |
| 20260506163002 | 17 | 129 | 3.2 | 11.3 | 0.00 | 0.00 | 0.00 | 1017.3 | |
| 20260506162502 | 17 | 169 | 4.8 | 11.3 | 0.00 | 0.00 | 0.00 | 1016.6 | |
| 20260506162002 | 17 | 240 | 3.2 | 6.4 | 0.00 | 0.00 | 0.00 | 1017.0 | |
| 20260506161523 | 16 | 92 | 3.2 | 9.7 | 0.00 | 0.00 | 0.00 | 1016.6 | |
| 20260506161024 | 16 | 86 | 1.6 | 9.7 | 0.00 | 0.00 | 0.00 | 1017.0 | |
| 20260506160501 | 16 | 85 | 3.2 | 9.7 | 0.00 | 0.00 | 0.00 | 1017.3 | |
| 20260506160002 | 16 | 103 | 4.8 | 8.0 | 0.00 | 0.00 | 0.00 | 1017.0 | |
| 20260506155502 | 16 | 74 | 3.2 | 8.0 | 0.00 | 0.00 | 0.00 | 1017.3 | |
| 20260506155003 | 16 | 266 | 1.6 | 11.3 | 0.00 | 0.00 | 0.00 | 1016.6 | |
| 20260506154501 | 16 | 68 | 4.8 | 11.3 | 0.00 | 0.00 | 0.00 | 1017.0 | |
| 20260506154003 | 16 | 73 | 4.8 | 12.9 | 0.00 | 0.00 | 0.00 | 1017.0 | |
| 20260506153523 | 16 | 69 | 3.2 | 12.9 | 0.00 | 0.00 | 0.00 | 1017.0 | |
| 20260506153002 | 16 | 22 | 3.2 | 8.0 | 0.00 | 0.00 | 0.00 | 1017.3 | |
| 20260506152502 | 16 | 84 | 4.8 | 8.0 | 0.00 | 0.00 | 0.00 | 1017.0 | |
| 20260506152002 | 15 | 80 | 6.4 | 8.0 | 0.00 | 0.00 | 0.00 | 1017.3 | |
| 20260506151504 | 15 | 91 | 4.8 | 8.0 | 0.00 | 0.00 | 0.00 | 1017.6 | |
| 20260506151025 | 15 | 83 | 3.2 | 9.7 | 0.00 | 0.00 | 0.00 | 1017.0 | |
| 20260506150502 | 15 | 63 | 3.2 | 9.7 | 0.00 | 0.00 | 0.00 | 1017.3 | |
| 20260506150002 | 15 | 69 | 3.2 | 8.0 | 0.00 | 0.00 | 0.00 | 1017.0 | |
| 20260506145502 | 14 | 128 | 3.2 | 8.0 | 0.00 | 0.00 | 0.00 | 1017.0 | |
| 20260506145002 | 14 | 103 | 4.8 | 8.0 | 0.00 | 0.00 | 0.00 | 1017.3 | |
| 20260506144523 | 14 | 71 | 4.8 | 8.0 | 0.00 | 0.00 | 0.00 | 1017.0 | |
| 20260506144024 | 13 | 71 | 3.2 | 6.4 | 0.00 | 0.00 | 0.00 | 1017.0 | |
| 20260506143502 | 13 | 78 | 3.2 | 6.4 | 0.00 | 0.00 | 0.00 | 1016.6 | |
| 20260506143002 | 13 | 74 | 1.6 | 9.7 | 0.00 | 0.00 | 0.00 | 1017.0 | |
| 20260506142524 | 13 | 85 | 3.2 | 9.7 | 0.00 | 0.00 | 0.00 | 1016.6 | |
| 20260506142003 | 12 | 74 | 4.8 | 8.0 | 0.00 | 0.00 | 0.00 | 1016.6 | |
| 20260506141523 | 12 | 66 | 4.8 | 6.4 | 0.00 | 0.00 | 0.00 | 1016.6 | |
| 20260506141003 | 12 | 72 | 3.2 | 8.0 | 0.00 | 0.00 | 0.00 | 1016.6 | |
| 20260506140502 | 12 | 19 | 3.2 | 8.0 | 0.00 | 0.00 | 0.00 | 1016.6 | |
| 20260506140002 | 12 | 59 | 4.8 | 8.0 | 0.00 | 0.00 | 0.00 | 1016.6 | |
| 20260506135502 | 12 | 54 | 3.2 | 4.8 | 0.00 | 0.00 | 0.00 | 1016.6 | |
| 20260506135003 | 12 | 61 | 1.6 | 4.8 | 0.00 | 0.00 | 0.00 | 1016.6 | |
| 20260506134502 | 12 | 53 | 1.6 | 4.8 | 0.00 | 0.00 | 0.00 | 1016.6 | |
| 20260506134002 | 12 | 73 | 3.2 | 6.4 | 0.00 | 0.00 | 0.00 | 1017.0 | |
| 20260506133501 | 12 | 42 | 3.2 | 6.4 | 0.00 | 0.00 | 0.00 | 1016.6 | |
| 20260506133002 | 12 | 46 | 1.6 | 3.2 | 0.00 | 0.00 | 0.00 | 1016.6 | |
| 20260506132502 | 12 | 55 | 1.6 | 3.2 | 0.00 | 0.00 | 0.00 | 1016.6 | |
| 20260506132003 | 12 | 360 | 0.0 | 1.6 | 0.00 | 0.00 | 0.00 | 1017.0 | |
| 20260506131502 | 12 | 158 | 0.0 | 3.2 | 0.00 | 0.00 | 0.00 | 1016.3 | |
| 20260506131002 | 12 | 158 | 0.0 | 3.2 | 0.00 | 0.00 | 0.00 | 1016.3 | |
| 20260506130501 | 12 | 96 | 1.6 | 3.2 | 0.00 | 0.00 | 0.00 | 1016.0 | |
| 20260506130002 | 12 | 113 | 1.6 | 4.8 | 0.00 | 0.00 | 0.00 | 1015.6 | |
| 20260506125503 | 12 | 87 | 1.6 | 4.8 | 0.00 | 0.00 | 0.00 | 1016.0 | |
| 20260506125004 | 12 | 110 | 1.6 | 4.8 | 0.00 | 0.00 | 0.00 | 1016.3 | |
| 20260506124502 | 12 | 113 | 1.6 | 4.8 | 0.00 | 0.00 | 0.00 | 1016.6 | |
| 20260506124004 | 12 | 113 | 1.6 | 4.8 | 0.00 | 0.00 | 0.00 | 1016.6 | |
| 20260506123524 | 12 | 113 | 3.2 | 4.8 | 0.00 | 0.00 | 0.00 | 1016.6 | |
| 20260506123002 | 12 | 81 | 1.6 | 4.8 | 0.00 | 0.00 | 0.00 | 1016.3 | |
| 20260506122503 | 12 | 84 | 3.2 | 4.8 | 0.00 | 0.00 | 0.00 | 1017.0 | |
| 20260506122001 | 12 | 88 | 1.6 | 3.2 | 0.00 | 0.00 | 0.00 | 1016.6 | |
| 20260506121502 | 12 | 90 | 1.6 | 3.2 | 0.00 | 0.00 | 0.00 | 1016.6 | |
| 20260506121002 | 12 | 90 | 0.0 | 3.2 | 0.00 | 0.00 | 0.00 | 1016.6 | |
| 20260506120502 | 12 | 77 | 1.6 | 3.2 | 0.00 | 0.00 | 0.00 | 1016.3 | |
| 20260506120002 | 12 | 44 | 1.6 | 3.2 | 0.00 | 0.00 | 0.00 | 1016.0 | |
| 20260506115501 | 12 | 54 | 1.6 | 4.8 | 0.00 | 0.00 | 0.00 | 1016.3 | |
| 20260506115003 | 12 | 62 | 3.2 | 4.8 | 0.00 | 0.00 | 0.00 | 1016.3 | |
| 20260506114502 | 12 | 76 | 3.2 | 4.8 | 0.00 | 0.00 | 0.00 | 1016.3 | |
| 20260506114003 | 12 | 82 | 3.2 | 4.8 | 0.00 | 0.00 | 0.00 | 1016.0 | |
| 20260506113502 | 12 | 91 | 3.2 | 4.8 | 0.00 | 0.00 | 0.00 | 1015.6 | |
| 20260506113001 | 12 | 68 | 1.6 | 4.8 | 0.00 | 0.00 | 0.00 | 1015.6 | |
| 20260506112503 | 12 | 76 | 1.6 | 4.8 | 0.00 | 0.00 | 0.00 | 1016.0 | |
| 20260506112003 | 12 | 90 | 3.2 | 4.8 | 0.00 | 0.00 | 0.00 | 1015.6 | |
| 20260506111502 | 12 | 85 | 3.2 | 6.4 | 0.00 | 0.00 | 0.00 | 1016.3 | |
| 20260506111002 | 12 | 74 | 3.2 | 6.4 | 0.00 | 0.00 | 0.00 | 1016.0 | |
| 20260506110502 | 12 | 88 | 3.2 | 4.8 | 0.00 | 0.00 | 0.00 | 1016.6 | |
| 20260506110001 | 12 | 87 | 1.6 | 4.8 | 0.00 | 0.00 | 0.00 | 1016.0 | |
| 20260506105502 | 12 | 87 | 3.2 | 4.8 | 0.00 | 0.00 | 0.00 | 1016.0 | |
| 20260506105001 | 12 | 97 | 3.2 | 3.2 | 0.00 | 0.00 | 0.00 | 1016.0 | |
| 20260506104502 | 13 | 68 | 1.6 | 3.2 | 0.00 | 0.00 | 0.00 | 1016.0 | |
| 20260506104002 | 13 | 44 | 1.6 | 3.2 | 0.00 | 0.00 | 0.00 | 1016.3 | |
| 20260506103502 | 13 | 42 | 1.6 | 3.2 | 0.00 | 0.00 | 0.00 | 1016.0 | |
| 20260506103001 | 13 | 46 | 1.6 | 3.2 | 0.00 | 0.00 | 0.00 | 1016.3 | |
| 20260506102523 | 13 | 68 | 1.6 | 3.2 | 0.00 | 0.00 | 0.00 | 1016.0 | |
| 20260506102023 | 13 | 64 | 1.6 | 3.2 | 0.00 | 0.00 | 0.00 | 1016.0 | |
| 20260506101502 | 13 | 49 | 1.6 | 3.2 | 0.00 | 0.00 | 0.00 | 1016.3 | |
| 20260506101003 | 13 | 82 | 1.6 | 4.8 | 0.00 | 0.00 | 0.00 | 1016.3 | |
| 20260506100501 | 13 | 46 | 1.6 | 4.8 | 0.00 | 0.00 | 0.00 | 1016.3 | |
| 20260506100002 | 13 | 63 | 3.2 | 3.2 | 0.00 | 0.00 | 0.00 | 1016.3 | |
| 20260506095504 | 13 | 44 | 3.2 | 4.8 | 0.00 | 0.00 | 0.00 | 1016.6 | |
| 20260506095002 | 13 | 44 | 1.6 | 4.8 | 0.00 | 0.00 | 0.00 | 1016.6 | |
| 20260506094502 | 13 | 41 | 1.6 | 3.2 | 0.00 | 0.00 | 0.00 | 1016.6 | |
| 20260506094001 | 13 | 113 | 1.6 | 1.6 | 0.00 | 0.00 | 0.00 | 1016.0 | |
| 20260506093503 | 13 | 113 | 0.0 | 0.0 | 0.00 | 0.00 | 0.00 | 1016.0 | |
| 20260506093023 | 13 | 113 | 0.0 | 0.0 | 0.00 | 0.00 | 0.00 | 1016.0 | |
| 20260506092503 | 13 | 113 | 0.0 | 1.6 | 0.00 | 0.00 | 0.00 | 1016.0 | |
| 20260506092002 | 13 | 113 | 0.0 | 1.6 | 0.00 | 0.00 | 0.00 | 1015.6 | |
| 20260506091502 | 13 | 113 | 0.0 | 3.2 | 0.00 | 0.00 | 0.00 | 1016.3 | |
| 20260506091002 | 13 | 114 | 1.6 | 3.2 | 0.00 | 0.00 | 0.00 | 1016.0 | |
| 20260506090502 | 13 | 137 | 1.6 | 3.2 | 0.00 | 0.00 | 0.00 | 1016.0 | |
| 20260506090002 | 13 | 158 | 1.6 | 3.2 | 0.00 | 0.00 | 0.00 | 1016.3 | |
| 20260506085502 | 13 | 158 | 1.6 | 3.2 | 0.00 | 0.00 | 0.00 | 1016.6 | |
| 20260506085002 | 13 | 158 | 1.6 | 3.2 | 0.00 | 0.00 | 0.00 | 1016.3 | |
| 20260506084502 | 13 | 158 | 1.6 | 3.2 | 0.00 | 0.00 | 0.00 | 1016.0 | |
| 20260506084024 | 13 | 158 | 1.6 | 3.2 | 0.00 | 0.00 | 0.00 | 1016.6 | |
| 20260506083503 | 13 | 174 | 1.6 | 3.2 | 0.00 | 0.00 | 0.00 | 1016.6 | |
| 20260506083001 | 13 | 180 | 0.0 | 3.2 | 0.00 | 0.00 | 0.00 | 1016.3 | |
| 20260506082502 | 13 | 156 | 1.6 | 4.8 | 0.00 | 0.00 | 0.00 | 1016.3 | |
| 20260506082002 | 13 | 163 | 1.6 | 4.8 | 0.00 | 0.00 | 0.00 | 1016.3 | |
| 20260506081501 | 13 | 161 | 1.6 | 3.2 | 0.00 | 0.00 | 0.00 | 1016.3 | |
| 20260506081003 | 13 | 137 | 1.6 | 3.2 | 0.00 | 0.00 | 0.00 | 1016.3 | |
| 20260506080524 | 13 | 122 | 1.6 | 4.8 | 0.00 | 0.00 | 0.00 | 1016.6 | |
| 20260506073503 | 14 | 99 | 1.6 | 4.8 | 0.00 | 0.00 | 0.00 | 1016.6 | |
| 20260506073002 | 14 | 113 | 0.0 | 4.8 | 0.00 | 0.00 | 0.00 | 1017.0 | |
| 20260506072523 | 14 | 127 | 3.2 | 4.8 | 0.00 | 0.00 | 0.00 | 1017.0 | |
| 20260506072002 | 14 | 98 | 1.6 | 4.8 | 0.00 | 0.00 | 0.00 | 1017.3 | |
| 20260506071502 | 14 | 97 | 1.6 | 4.8 | 0.00 | 0.00 | 0.00 | 1017.0 | |
| 20260506071002 | 14 | 90 | 1.6 | 4.8 | 0.00 | 0.00 | 0.00 | 1017.3 | |
| 20260506070502 | 14 | 93 | 1.6 | 4.8 | 0.00 | 0.00 | 0.00 | 1017.0 | |
| 20260506062503 | 15 | 112 | 0.0 | 3.2 | 0.00 | 0.00 | 0.00 | 1016.0 | |
| 20260506062002 | 15 | 113 | 1.6 | 3.2 | 0.00 | 0.00 | 0.00 | 1016.0 | |
| 20260506061503 | 15 | 100 | 1.6 | 3.2 | 0.00 | 0.00 | 0.00 | 1016.3 | |
| 20260506061002 | 15 | 129 | 1.6 | 4.8 | 0.00 | 0.00 | 0.00 | 1016.0 | |
| 20260506060523 | 15 | 107 | 3.2 | 4.8 | 0.00 | 0.00 | 0.00 | 1016.0 | |
| 20260506051002 | 15 | 234 | 1.6 | 4.8 | 0.00 | 0.00 | 0.00 | 1016.0 | |
| 20260506050523 | 15 | 202 | 0.0 | 4.8 | 0.00 | 0.00 | 0.00 | 1015.6 | |
| 20260506045002 | 16 | 202 | 3.2 | 6.4 | 0.00 | 0.00 | 0.00 | 1015.6 | |
| 20260506044504 | 16 | 209 | 3.2 | 6.4 | 0.00 | 0.00 | 0.00 | 1015.6 | |
| 20260506044003 | 16 | 203 | 1.6 | 6.4 | 0.00 | 0.00 | 0.00 | 1015.6 | |
| 20260506043502 | 16 | 216 | 3.2 | 6.4 | 0.00 | 0.00 | 0.00 | 1015.3 | |
| 20260506043002 | 16 | 214 | 3.2 | 6.4 | 0.00 | 0.00 | 0.00 | 1015.3 | |
| 20260506042524 | 16 | 209 | 3.2 | 6.4 | 0.00 | 0.00 | 0.00 | 1015.3 | |
| 20260506042024 | 16 | 217 | 3.2 | 4.8 | 0.00 | 0.00 | 0.00 | 1014.9 | |
| 20260506041502 | 16 | 205 | 3.2 | 8.0 | 0.00 | 0.00 | 0.00 | 1015.3 | |
| 20260506041002 | 16 | 207 | 4.8 | 8.0 | 0.00 | 0.00 | 0.00 | 1015.3 | |
| 20260506040502 | 16 | 205 | 3.2 | 6.4 | 0.00 | 0.00 | 0.00 | 1014.9 | |
| 20260506040023 | 16 | 205 | 4.8 | 8.0 | 0.00 | 0.00 | 0.00 | 1015.3 | |
| 20260506035524 | 16 | 205 | 4.8 | 8.0 | 0.00 | 0.00 | 0.00 | 1014.9 | |
| 20260506035003 | 16 | 215 | 4.8 | 8.0 | 0.00 | 0.00 | 0.00 | 1014.9 | |
| 20260506034502 | 16 | 207 | 3.2 | 6.4 | 0.00 | 0.00 | 0.00 | 1014.9 |